DateTimeUTC,F1_A11,F1_S11,BsB_S11,BsG_S11,BsR_S11,BbsB_S11,BbsG_S11,BbsR_S11,BaB_A11,BaG_A11,BaR_A11,T_S11,U_S11,P_S11,T1_A11
2020-11-24T00:00:00Z,00000388,21000608,,,,,,,,,,22.5,00.0,0655.2,30.7
2020-11-24T00:01:00Z,00000388,21000608,,,,,,,,,,22.5,00.0,0655.2,30.7
2020-11-24T00:02:00Z,00000388,21000608,,,,,,,,,,22.5,00.0,0655.3,30.7
2020-11-24T00:03:00Z,00000388,61000608,,,,,,,,,,22.5,00.0,0655.3,30.7
2020-11-24T00:04:00Z,00000388,41000608,0000.81,0001.00,0000.91,-000.00,0000.14,0000.30,-000.08,-000.02,0000.08,22.5,00.0,0656.1,30.7
2020-11-24T00:05:00Z,00000388,01000608,0000.97,0000.46,0001.02,-000.05,0000.19,-000.50,-000.02,-000.02,-000.05,22.5,00.0,0656.2,30.7
2020-11-24T00:06:00Z,00000388,01000608,0000.35,0000.95,0000.78,0000.09,0000.01,-000.29,-000.01,-000.10,0000.08,22.5,00.0,0656.1,30.7
2020-11-24T00:07:00Z,00000388,01000608,0001.27,0000.64,0000.21,-000.62,-000.05,0000.09,-000.06,0000.07,-000.10,22.4,00.0,0656.1,30.7
2020-11-24T00:08:00Z,00000388,01000608,0001.06,-000.20,0000.56,0000.32,0000.01,0000.17,0000.11,0000.09,0000.09,22.4,00.0,0656.1,30.7
2020-11-24T00:09:00Z,00000388,01000608,0001.91,0000.40,0000.06,-000.29,0000.14,0000.07,0000.07,0000.06,0000.11,22.4,00.0,0656.1,30.7
2020-11-24T00:10:00Z,00000388,01000608,0000.98,0000.03,0000.66,0000.40,-000.05,0000.12,0000.09,0000.13,0000.02,22.4,00.0,0656.2,30.7
2020-11-24T00:11:00Z,00000388,01000608,0000.44,0001.04,0000.62,-000.03,-000.11,-000.22,0000.07,-000.04,-000.10,22.4,00.0,0656.2,30.7
2020-11-24T00:12:00Z,00000388,01000608,0000.81,0000.67,0000.63,0000.15,0000.26,-000.08,-000.01,-000.04,0000.14,22.4,00.0,0656.2,30.7
2020-11-24T00:13:00Z,00000388,01000608,-000.20,0000.61,0000.45,-000.26,0000.58,0000.10,0000.07,0000.07,-000.07,22.5,00.0,0656.2,30.7
2020-11-24T00:14:00Z,00000388,01000608,0000.67,0000.38,0000.26,0000.61,0000.26,0000.10,-000.00,0000.05,0000.10,22.5,00.0,0656.2,30.7
2020-11-24T00:15:00Z,00000388,01000608,-000.11,0001.36,0000.16,0000.23,-000.13,-000.04,0000.12,0000.06,-000.01,22.5,00.0,0656.2,30.7
2020-11-24T00:16:00Z,00000388,01000608,-000.43,0000.01,0000.01,-000.18,-000.16,0000.04,-000.03,-000.05,0000.14,22.5,00.0,0656.2,30.7
2020-11-24T00:17:00Z,00000388,01000608,-000.36,0000.51,0000.83,-000.34,0000.19,0000.20,-000.14,0000.02,-000.08,22.5,00.0,0656.2,30.7
2020-11-24T00:18:00Z,00000388,01000608,-000.30,0000.04,0000.17,0001.00,0000.19,0000.02,0000.14,-000.07,0000.05,22.5,00.0,0656.2,30.7
2020-11-24T00:19:00Z,00000388,01000608,0001.12,-000.09,0000.80,0000.08,0000.50,-000.08,-000.13,-000.08,-000.18,22.5,00.0,0656.1,30.7
2020-11-24T00:20:00Z,00000388,01000608,0000.09,0000.59,0000.18,-000.36,0000.33,-000.21,-000.01,0000.14,0000.11,22.4,00.0,0656.1,30.7
2020-11-24T00:21:00Z,00000388,01000608,0000.42,0000.10,0000.11,0000.29,0000.03,0000.15,0000.11,-000.00,-000.03,22.4,00.0,0656.1,30.7
2020-11-24T00:22:00Z,00000388,01000608,0000.75,0000.09,0000.83,0000.15,0000.08,-000.33,0000.05,0000.00,0000.04,22.4,00.0,0656.1,30.7
2020-11-24T00:23:00Z,00000388,01000608,0000.67,0000.39,0000.54,0000.21,0000.15,-000.34,0000.05,0000.12,0000.03,22.4,00.0,0656.1,30.7
2020-11-24T00:24:00Z,00000388,01000608,0000.86,0000.49,0000.66,0000.25,0000.01,-000.18,0000.09,0000.15,0000.03,22.4,00.0,0656.1,30.7
2020-11-24T00:25:00Z,00000388,01000608,0000.86,0000.47,0000.31,-000.47,0000.18,-000.02,0000.12,0000.03,0000.08,22.4,00.0,0656.2,30.7
2020-11-24T00:26:00Z,00000388,01000608,-000.01,-000.05,0000.58,-000.16,0000.28,0000.00,0000.04,-000.05,0000.02,22.4,00.0,0656.2,30.7
2020-11-24T00:27:00Z,00000388,01000608,0000.65,0000.89,0000.29,0000.36,0000.23,-000.41,0000.02,0000.06,0000.07,22.4,00.0,0656.2,30.7
2020-11-24T00:28:00Z,00000388,01000608,0000.37,0000.71,0000.54,0000.35,0000.19,0000.11,-000.00,0000.09,0000.05,22.4,00.0,0656.2,30.7
2020-11-24T00:29:00Z,00000388,01000608,0000.94,0000.73,0001.00,0001.43,0000.33,0000.84,0000.05,-000.04,-000.06,22.4,00.0,0656.2,30.7
2020-11-24T00:30:00Z,00000388,01000608,-001.78,0000.86,0000.41,-000.33,0000.17,0000.29,0000.05,0000.15,0000.12,22.5,00.0,0656.2,30.7
2020-11-24T00:31:00Z,00000388,01000608,0000.06,0000.83,0000.88,0000.54,0000.21,0000.31,0000.10,-000.06,-000.02,22.5,00.0,0656.2,30.7
2020-11-24T00:32:00Z,00000388,01000608,0000.58,0001.18,0000.72,-000.22,0000.27,0000.02,-000.06,0000.02,0000.11,22.4,00.0,0656.2,30.7
2020-11-24T00:33:00Z,00000388,01000608,0000.76,-000.22,0000.67,0000.39,-000.08,0000.23,0000.00,-000.07,-000.09,22.4,00.0,0656.2,30.7
2020-11-24T00:34:00Z,00000388,01000608,-000.31,0000.71,0000.41,-000.38,0000.26,-000.23,-000.03,-000.05,-000.08,22.4,00.0,0656.2,30.7
2020-11-24T00:35:00Z,00000388,01000608,0001.37,0000.19,0000.86,-001.13,-000.09,0000.21,0000.01,0000.11,0000.04,22.4,00.0,0656.1,30.7
2020-11-24T00:36:00Z,00000388,01000608,0000.38,-000.06,0000.77,-001.23,0000.22,-000.49,-000.02,0000.04,0000.04,22.4,00.0,0656.1,30.7
2020-11-24T00:37:00Z,00000388,01000608,0001.06,0000.03,0000.47,0000.43,0000.04,-000.04,0000.01,-000.02,-000.16,22.4,00.0,0656.1,30.7
2020-11-24T00:38:00Z,00000388,01000608,0000.73,0000.22,0000.92,0000.45,0000.18,0000.24,0000.22,-000.03,0000.08,22.3,00.0,0656.1,30.7
2020-11-24T00:39:00Z,00000388,01000608,0000.54,0000.07,0000.67,0000.14,0000.31,-000.47,-000.01,0000.17,0000.13,22.3,00.0,0656.1,30.6
2020-11-24T00:40:00Z,00000388,01000608,0000.58,0000.59,0000.68,0000.05,0000.18,-000.29,0000.17,0000.14,0000.10,22.3,00.0,0656.1,30.6
2020-11-24T00:41:00Z,00000388,01000608,0000.73,0000.55,0000.13,0000.60,0000.38,-000.22,-000.09,-000.04,0000.00,22.3,00.0,0656.2,30.6
2020-11-24T00:42:00Z,00000388,01000608,0000.46,-000.30,0000.19,0000.26,0000.30,-000.11,0000.03,-000.01,0000.03,22.3,00.0,0656.2,30.7
2020-11-24T00:43:00Z,00000388,01000608,0000.36,0000.30,0000.73,-000.05,0000.13,-000.17,0000.08,0000.05,0000.03,22.4,00.0,0656.2,30.7
2020-11-24T00:44:00Z,00000388,01000608,-000.93,0000.26,0000.45,-000.65,0000.32,0000.26,0000.08,0000.08,0000.00,22.4,00.0,0656.2,30.7
2020-11-24T00:45:00Z,00000388,01000608,0001.19,0000.48,0000.50,0000.86,0000.14,-000.12,0000.07,0000.10,0000.08,22.4,00.0,0656.2,30.7
2020-11-24T00:46:00Z,00000388,01000608,-000.06,0000.29,0000.51,0000.75,-000.08,0000.08,0000.03,0000.00,-000.07,22.4,00.0,0656.2,30.7
2020-11-24T00:47:00Z,00000388,01000608,0000.32,0000.68,0000.56,0000.18,-000.04,0000.13,0000.03,0000.10,0000.07,22.4,00.0,0656.2,30.7
2020-11-24T00:48:00Z,00000388,01000608,0000.48,0000.19,-000.10,0000.43,0000.03,-000.44,-000.09,-000.10,0000.00,22.4,00.0,0656.2,30.7
2020-11-24T00:49:00Z,00000388,01000608,0000.85,-000.40,0000.67,-000.32,0000.13,-000.29,-000.08,-000.09,-000.11,22.4,00.0,0656.2,30.7
2020-11-24T00:50:00Z,00000388,01000608,0000.48,0000.57,0000.42,0000.29,0000.28,0000.55,0000.05,0000.03,0000.03,22.4,00.0,0656.2,30.7
2020-11-24T00:51:00Z,00000388,01000608,0000.11,0000.28,0000.77,0000.39,-000.03,0000.28,0000.02,0000.07,0000.03,22.4,00.0,0656.2,30.7
2020-11-24T00:52:00Z,00000388,01000608,0000.49,0000.07,0000.53,0000.35,0000.28,-000.31,0000.02,-000.04,-000.03,22.3,00.0,0656.2,30.7
2020-11-24T00:53:00Z,00000388,01000608,0000.74,0000.14,0000.03,-000.14,-000.08,-000.24,-000.04,0000.07,0000.05,22.3,00.0,0656.2,30.7
2020-11-24T00:54:00Z,00000388,01000608,-000.04,-000.14,0000.69,0000.97,-000.28,0000.40,0000.17,0000.09,0000.15,22.3,00.0,0656.2,30.7
2020-11-24T00:55:00Z,00000388,01000608,0000.34,-000.08,0000.56,-000.06,0000.06,-000.12,0000.16,0000.07,0000.11,22.3,00.0,0656.2,30.7
2020-11-24T00:56:00Z,00000388,01000608,0000.24,0000.51,-000.13,0000.50,0000.04,0000.09,0000.03,0000.12,-000.10,22.3,00.0,0656.2,30.7
2020-11-24T00:57:00Z,00000388,41000608,,,,,,,,,,22.3,00.0,0656.2,30.7
2020-11-24T00:58:00Z,00000388,61000608,,,,,,,,,,22.3,00.0,0655.4,30.7
2020-11-24T00:59:00Z,00000388,21000608,,,,,,,,,,22.4,00.0,0655.4,30.7
2020-11-24T01:00:00Z,00000388,21000608,,,,,,,,,,22.4,00.0,0655.4,30.7
2020-11-24T01:01:00Z,00000388,21000608,,,,,,,,,,22.4,00.0,0655.4,30.7
2020-11-24T01:02:00Z,00000388,21000608,,,,,,,,,,22.4,00.0,0655.4,30.7
2020-11-24T01:03:00Z,00000388,61000608,,,,,,,,,,22.5,00.0,0655.4,30.7
2020-11-24T01:04:00Z,00000388,41000608,0000.66,0000.48,0000.15,-000.18,-000.23,-000.02,-000.05,-000.01,-000.05,22.4,00.0,0656.2,30.7
2020-11-24T01:05:00Z,00000388,01000608,0001.38,0000.39,0000.19,-000.33,0000.32,0000.14,-000.01,-000.02,-000.12,22.3,00.0,0656.3,30.7
2020-11-24T01:06:00Z,00000388,01000608,0001.34,0000.14,0000.61,-000.09,0000.25,0000.25,-000.03,0000.03,0000.11,22.3,00.0,0656.3,30.7
2020-11-24T01:07:00Z,00000388,01000608,0000.73,0000.61,0000.05,0000.55,0000.38,0000.04,-000.00,0000.00,-000.13,22.3,00.0,0656.3,30.7
2020-11-24T01:08:00Z,00000388,01000608,0000.27,0000.69,0000.22,0000.39,-000.07,0000.35,0000.08,0000.07,0000.14,22.3,00.0,0656.3,30.7
2020-11-24T01:09:00Z,00000388,01000608,0001.69,0000.00,0000.22,0000.10,-000.01,0000.17,0000.21,0000.12,0000.06,22.2,00.0,0656.3,30.6
2020-11-24T01:10:00Z,00000388,01000608,0000.01,0000.48,0000.52,0000.01,0000.38,-000.08,0000.07,-000.08,0000.14,22.2,00.0,0656.3,30.6
2020-11-24T01:11:00Z,00000388,01000608,0001.28,0000.29,0000.53,0000.38,0000.30,0000.15,-000.03,0000.09,0000.02,22.2,00.0,0656.3,30.7
2020-11-24T01:12:00Z,00000388,01000608,0000.95,0000.79,-000.29,0000.50,-000.23,-000.10,0000.07,0000.17,0000.04,22.3,00.0,0656.4,30.7
2020-11-24T01:13:00Z,00000388,01000608,0001.31,0000.61,0000.15,0000.15,0000.06,0000.06,0000.04,-000.08,-000.01,22.3,00.0,0656.4,30.7
2020-11-24T01:14:00Z,00000388,01000608,-000.20,0000.74,0000.59,0000.64,0000.71,0000.29,-000.07,-000.07,0000.01,22.3,00.0,0656.4,30.7
2020-11-24T01:15:00Z,00000388,01000608,0001.55,0000.33,-000.30,-000.09,0000.66,-000.21,0000.27,0000.08,0000.07,22.3,00.0,0656.4,30.7
2020-11-24T01:16:00Z,00000388,01000608,-000.32,0000.89,0000.31,0000.09,0000.08,0000.08,-000.07,0000.14,-000.01,22.3,00.0,0656.4,30.7
2020-11-24T01:17:00Z,00000388,01000608,0000.85,0000.50,0000.26,-000.08,0000.30,0000.10,-000.02,-000.06,0000.15,22.4,00.0,0656.4,30.7
2020-11-24T01:18:00Z,00000388,01000608,0001.20,0001.10,0000.24,0000.63,0000.21,0000.11,0000.10,0000.09,-000.04,22.4,00.0,0656.4,30.7
2020-11-24T01:19:00Z,00000388,01000608,0001.85,0000.42,0000.25,0000.30,0000.25,-000.47,0000.05,0000.05,-000.05,22.4,00.0,0656.4,30.7
2020-11-24T01:20:00Z,00000388,01000608,0001.18,0000.49,0000.03,0000.34,0000.48,0000.11,0000.00,-000.01,0000.10,22.4,00.0,0656.4,30.7
2020-11-24T01:21:00Z,00000388,01000608,0001.52,0000.97,0000.20,0000.76,0000.27,0000.15,-000.23,-000.06,-000.10,22.3,00.0,0656.4,30.7
2020-11-24T01:22:00Z,00000388,01000608,0000.09,0000.48,0000.34,-000.56,-000.00,0000.03,0000.07,-000.06,0000.02,22.3,00.0,0656.4,30.7
2020-11-24T01:23:00Z,00000388,01000608,0000.62,0000.52,0000.19,0000.37,0000.03,0000.13,-000.08,0000.02,0000.03,22.3,00.0,0656.4,30.7
2020-11-24T01:24:00Z,00000388,01000608,0001.83,0000.17,-000.07,-000.06,-000.10,-000.09,0000.22,0000.11,0000.03,22.3,00.0,0656.4,30.7
2020-11-24T01:25:00Z,00000388,01000608,0001.41,0000.44,0000.32,0000.04,0000.43,-000.46,0000.13,0000.11,0000.08,22.3,00.0,0656.4,30.7
2020-11-24T01:26:00Z,00000388,01000608,0000.15,0000.29,0000.57,0000.07,0000.46,0000.23,-000.02,-000.09,-000.04,22.3,00.0,0656.4,30.7
2020-11-24T01:27:00Z,00000388,01000608,0000.99,0000.46,0000.20,-000.52,0000.11,0000.16,0000.02,0000.15,0000.06,22.3,00.0,0656.4,30.7
2020-11-24T01:28:00Z,00000388,01000608,0000.86,0000.72,0000.63,-000.55,-000.05,-000.24,-000.02,0000.10,0000.10,22.4,00.0,0656.4,30.7
2020-11-24T01:29:00Z,00000388,01000608,0000.97,0000.87,0000.25,-000.52,0000.09,-000.20,0000.19,0000.06,0000.19,22.4,00.0,0656.4,30.7
2020-11-24T01:30:00Z,00000388,01000608,0002.51,0000.94,0000.89,0000.38,0000.55,-000.11,0000.57,0000.53,0000.25,22.4,00.0,0656.4,30.7
2020-11-24T01:31:00Z,00000388,01000608,0002.42,0000.82,0000.18,0001.37,0000.38,-000.02,0000.72,0000.79,0000.61,22.4,00.0,0656.4,30.7
2020-11-24T01:32:00Z,00000388,01000608,0001.00,0000.58,0000.48,-000.38,0000.28,0000.01,0001.87,0001.45,0001.27,22.4,00.0,0656.4,30.7
2020-11-24T01:33:00Z,00000388,01000608,0002.14,0001.46,0000.67,0000.42,0000.49,-000.09,0002.90,0002.77,0002.12,22.4,00.0,0656.4,30.7
2020-11-24T01:34:00Z,00000388,01000608,0003.92,0001.62,0001.03,0000.46,0000.16,0000.23,0004.51,0004.17,0003.37,22.3,00.0,0656.3,30.7
2020-11-24T01:35:00Z,00000388,01010608,0002.51,0002.25,0000.87,-000.14,0000.25,0000.57,0005.93,0005.58,0004.33,22.3,00.0,0656.3,30.7
2020-11-24T01:36:00Z,00000388,01000608,0003.20,0002.29,0001.24,0000.69,0000.34,0000.33,0007.26,0006.67,0005.20,22.3,00.0,0656.3,30.7
2020-11-24T01:37:00Z,00000388,01000608,0003.92,0002.63,0001.92,0001.06,0000.43,0000.47,0008.14,0007.39,0005.85,22.3,00.0,0656.3,30.6
2020-11-24T01:38:00Z,00000388,01000608,0002.97,0002.77,0001.49,0001.33,0000.50,0000.59,0008.30,0007.66,0006.01,22.3,00.0,0656.3,30.6
2020-11-24T01:39:00Z,00000388,01000608,0003.52,0003.23,0001.81,0000.84,0000.40,0000.18,0009.13,0008.37,0006.63,22.2,00.0,0656.3,30.6
2020-11-24T01:40:00Z,00000388,01000608,0005.13,0002.08,0001.89,0001.41,0000.35,0000.65,0009.44,0008.68,0006.93,22.2,00.0,0656.3,30.6
2020-11-24T01:41:00Z,00000388,01000608,0004.57,0003.25,0002.06,0000.76,0000.70,0000.08,0010.27,0009.50,0007.45,22.2,00.0,0656.3,30.6
2020-11-24T01:42:00Z,00000388,01000608,0004.20,0003.74,0002.07,-000.07,0000.56,0000.44,0011.19,0010.34,0008.20,22.2,00.0,0656.3,30.6
2020-11-24T01:43:00Z,00000388,01000608,0005.46,0003.71,0002.06,0001.57,0000.87,0000.72,0012.98,0011.89,0009.42,22.2,00.0,0656.3,30.6
2020-11-24T01:44:00Z,00000388,01000608,0005.25,0004.13,0003.25,0001.33,0000.68,0000.83,0014.55,0013.41,0010.49,22.3,00.0,0656.3,30.7
2020-11-24T01:45:00Z,00000388,01000608,0007.21,0005.11,0003.18,0000.33,0000.94,0000.56,0016.46,0015.14,0011.90,22.3,00.0,0656.4,30.7
2020-11-24T01:46:00Z,00000388,01000608,0006.85,0004.79,0003.66,0001.33,0001.02,0000.84,0017.99,0016.57,0013.18,22.3,00.0,0656.4,30.7
2020-11-24T01:47:00Z,00000388,01000608,0008.62,0005.31,0002.78,0001.05,0001.46,0000.50,0019.34,0017.83,0013.97,22.3,00.0,0656.4,30.7
2020-11-24T01:48:00Z,00000388,01000608,0008.02,0005.39,0004.07,0001.23,0001.14,0001.03,0020.35,0018.69,0014.88,22.3,00.0,0656.4,30.7
2020-11-24T01:49:00Z,00000388,01000608,0007.89,0005.53,0003.51,0001.55,0001.13,0000.83,0019.75,0018.23,0014.44,22.3,00.0,0656.4,30.7
2020-11-24T01:50:00Z,00000388,01000608,0009.08,0005.59,0003.56,0001.59,0001.34,0000.88,0019.41,0017.86,0014.05,22.3,00.0,0656.4,30.7
2020-11-24T01:51:00Z,00000388,01000608,0006.42,0005.49,0003.13,0002.16,0001.27,0000.78,0018.83,0017.46,0013.83,22.3,00.0,0656.4,30.7
2020-11-24T01:52:00Z,00000388,01000608,0007.59,0005.92,0003.31,0000.84,0001.01,0001.47,0018.58,0017.07,0013.49,22.3,00.0,0656.4,30.7
2020-11-24T01:53:00Z,00000388,01000608,0008.03,0005.14,0003.54,0001.02,0001.31,0000.89,0018.31,0017.01,0013.27,22.2,00.0,0656.3,30.7
2020-11-24T01:54:00Z,00000388,01000608,0008.10,0005.81,0003.19,0001.38,0001.11,0001.40,0018.21,0016.56,0013.25,22.2,00.0,0656.4,30.7
2020-11-24T01:55:00Z,00000388,01000608,0008.09,0006.07,0003.04,0000.92,0001.23,0000.73,0017.82,0016.42,0012.93,22.2,00.0,0656.4,30.6
2020-11-24T01:56:00Z,00000388,01000608,0007.48,0005.02,0003.05,0000.79,0001.18,0000.92,0017.76,0016.34,0013.07,22.3,00.0,0656.4,30.6
2020-11-24T01:57:00Z,00000388,41000608,,,,,,,,,,22.3,00.0,0656.3,30.7
2020-11-24T01:58:00Z,00000388,61000608,,,,,,,,,,22.3,00.0,0655.4,30.7
2020-11-24T01:59:00Z,00000388,21000608,,,,,,,,,,22.4,00.0,0655.4,30.7
2020-11-24T02:00:00Z,00000388,21000608,,,,,,,,,,22.4,00.0,0655.4,30.7
2020-11-24T02:01:00Z,00000388,21000608,,,,,,,,,,22.4,00.0,0655.4,30.7
2020-11-24T02:02:00Z,00000388,21000608,,,,,,,,,,22.4,00.0,0655.4,30.7
2020-11-24T02:03:00Z,00000388,61000608,,,,,,,,,,22.4,00.0,0655.4,30.7
2020-11-24T02:04:00Z,00000388,41000608,0008.04,0004.88,0003.25,0002.38,0001.28,0000.58,0018.01,0016.63,0013.25,22.3,00.0,0656.3,30.7
2020-11-24T02:05:00Z,00000388,01000608,0007.80,0005.42,0003.18,0001.49,0001.39,0000.46,0018.69,0017.26,0013.58,22.3,00.0,0656.3,30.7
2020-11-24T02:06:00Z,00000388,01000608,0007.36,0004.89,0003.23,0001.94,0001.52,0000.67,0019.12,0017.58,0013.93,22.3,00.0,0656.3,30.7
2020-11-24T02:07:00Z,00000388,01000608,0008.38,0005.15,0002.80,0001.38,0001.64,0001.00,0018.77,0017.33,0013.69,22.3,00.0,0656.3,30.7
2020-11-24T02:08:00Z,00000388,01000608,0007.97,0004.93,0003.17,0001.48,0001.55,0000.36,0018.16,0016.93,0013.42,22.3,00.0,0656.3,30.7
2020-11-24T02:09:00Z,00000388,01000608,0006.95,0005.48,0002.78,0000.75,0001.58,0000.60,0017.60,0016.01,0012.69,22.2,00.0,0656.3,30.6
2020-11-24T02:10:00Z,00000388,01000608,0005.51,0003.99,0002.66,0001.29,0001.18,0000.63,0016.19,0015.04,0011.83,22.2,00.0,0656.3,30.6
2020-11-24T02:11:00Z,00000388,01000608,0007.28,0004.48,0002.15,0001.24,0001.13,0000.11,0015.22,0014.01,0011.06,22.2,00.0,0656.3,30.6
2020-11-24T02:12:00Z,00000388,01000608,0006.53,0003.59,0002.51,0001.14,0001.28,0000.44,0013.81,0012.79,0010.22,22.3,00.0,0656.3,30.7
2020-11-24T02:13:00Z,00000388,01000608,0005.77,0003.76,0002.20,0001.31,0000.70,0000.50,0012.76,0011.80,0009.17,22.3,00.0,0656.4,30.7
2020-11-24T02:14:00Z,00000388,01000608,0005.34,0003.40,0002.82,0000.74,0000.71,0000.71,0011.69,0010.70,0008.60,22.3,00.0,0656.3,30.7
2020-11-24T02:15:00Z,00000388,01000608,0005.32,0003.26,0002.71,0000.12,0001.27,0000.05,0010.49,0009.72,0007.73,22.3,00.0,0656.4,30.7
2020-11-24T02:16:00Z,00000388,01000608,0005.20,0002.89,0002.30,0000.91,0000.94,0000.49,0009.63,0008.88,0007.03,22.3,00.0,0656.3,30.7
2020-11-24T02:17:00Z,00000388,01000608,0004.74,0002.52,0001.83,0000.89,0000.84,-000.02,0009.01,0008.39,0006.59,22.3,00.0,0656.3,30.7
2020-11-24T02:18:00Z,00000388,01000608,0003.41,0002.51,0001.51,0000.29,0000.84,0000.39,0008.30,0007.52,0005.96,22.3,00.0,0656.3,30.7
2020-11-24T02:19:00Z,00000388,01000608,0003.50,0002.44,0001.45,0000.53,0001.03,0000.35,0007.89,0007.33,0005.68,22.3,00.0,0656.3,30.7
2020-11-24T02:20:00Z,00000388,01000608,0004.10,0002.63,0001.39,0001.06,0000.98,0000.26,0007.30,0006.74,0005.50,22.3,00.0,0656.2,30.7
2020-11-24T02:21:00Z,00000388,01000608,0003.96,0002.18,0001.56,0000.67,0000.64,0000.13,0007.07,0006.39,0005.12,22.3,00.0,0656.2,30.7
2020-11-24T02:22:00Z,00000388,01000608,0003.83,0002.04,0001.76,0000.54,0000.74,0000.30,0006.77,0006.28,0004.97,22.3,00.0,0656.2,30.7
2020-11-24T02:23:00Z,00000388,01000608,0003.51,0001.79,0001.40,0000.90,0000.55,0000.42,0006.59,0006.30,0004.90,22.2,00.0,0656.2,30.6
2020-11-24T02:24:00Z,00000388,01000608,0003.85,0002.22,0001.48,0000.41,0000.99,-000.13,0006.88,0006.09,0004.87,22.2,00.0,0656.2,30.6
2020-11-24T02:25:00Z,00000388,01000608,0003.17,0002.13,0001.41,0000.91,0000.83,0000.13,0006.77,0006.28,0004.96,22.2,00.0,0656.2,30.6
2020-11-24T02:26:00Z,00000388,01000608,0003.29,0001.85,0000.97,0000.81,0000.72,-000.07,0006.33,0005.96,0004.63,22.2,00.0,0656.2,30.6
2020-11-24T02:27:00Z,00000388,01000608,0003.94,0001.96,0001.74,0000.52,0000.83,0000.07,0006.16,0005.64,0004.56,22.2,00.0,0656.2,30.7
2020-11-24T02:28:00Z,00000388,01000608,0003.36,0002.04,0001.25,0001.20,0000.60,0000.05,0006.02,0005.62,0004.31,22.2,00.0,0656.2,30.7
2020-11-24T02:29:00Z,00000388,01000608,0002.28,0002.11,0001.37,0000.69,0000.27,-000.15,0005.79,0005.22,0004.31,22.3,00.0,0656.2,30.7
2020-11-24T02:30:00Z,00000388,01000608,0004.05,0002.09,0001.44,0001.41,0000.55,0000.29,0005.96,0005.40,0004.23,22.3,00.0,0656.3,30.7
2020-11-24T02:31:00Z,00000388,01000608,0003.17,0001.97,0000.96,-000.02,0000.65,0000.06,0006.00,0005.73,0004.57,22.3,00.0,0656.2,30.7
2020-11-24T02:32:00Z,00000388,01000608,0003.89,0002.09,0001.39,0000.33,0000.66,0000.19,0006.75,0006.29,0004.82,22.3,00.0,0656.3,30.7
2020-11-24T02:33:00Z,00000388,01000608,0003.28,0002.16,0001.77,0000.69,0000.65,0000.50,0007.87,0007.10,0005.81,22.3,00.0,0656.3,30.7
2020-11-24T02:34:00Z,00000388,01000608,0003.75,0002.93,0002.02,0001.49,0000.70,0000.38,0008.35,0007.72,0006.04,22.3,00.0,0656.3,30.7
2020-11-24T02:35:00Z,00000388,01000608,0004.60,0002.83,0002.37,0000.87,0000.98,0000.17,0009.20,0008.54,0006.71,22.3,00.0,0656.3,30.7
2020-11-24T02:36:00Z,00000388,01000608,0004.28,0003.08,0001.47,0001.24,0000.64,0000.13,0009.91,0008.97,0007.27,22.3,00.0,0656.2,30.7
2020-11-24T02:37:00Z,00000388,01000608,0005.30,0003.26,0002.05,0000.41,0001.07,0000.60,0010.14,0009.56,0007.42,22.3,00.0,0656.2,30.7
2020-11-24T02:38:00Z,00000388,01000608,0005.12,0002.71,0001.84,0001.59,0000.88,-000.05,0010.06,0009.25,0007.31,22.3,00.0,0656.2,30.7
2020-11-24T02:39:00Z,00000388,01000608,0004.27,0003.15,0002.37,0000.80,0000.79,0000.45,0009.39,0008.76,0006.91,22.2,00.0,0656.2,30.6
2020-11-24T02:40:00Z,00000388,01000608,0005.32,0002.89,0001.57,0000.42,0001.07,0000.42,0008.95,0008.01,0006.46,22.2,00.0,0656.2,30.6
2020-11-24T02:41:00Z,00000388,01000608,0004.37,0002.33,0001.74,0000.38,0001.17,0000.55,0007.84,0007.46,0005.79,22.2,00.0,0656.2,30.7
2020-11-24T02:42:00Z,00000388,01000608,0004.03,0002.49,0001.53,0000.48,0000.56,0000.17,0007.24,0006.64,0005.37,22.3,00.0,0656.2,30.7
2020-11-24T02:43:00Z,00000388,01000608,0003.52,0002.10,0001.73,0001.09,0000.63,0000.11,0006.56,0005.96,0004.72,22.3,00.0,0656.2,30.7
2020-11-24T02:44:00Z,00000388,01000608,0003.26,0001.85,0001.13,-000.56,0000.57,0000.24,0005.90,0005.47,0004.36,22.3,00.0,0656.2,30.7
2020-11-24T02:45:00Z,00000388,01000608,0002.74,0002.05,0001.14,0000.69,0001.49,0000.27,0005.23,0004.95,0003.89,22.3,00.0,0656.2,30.7
2020-11-24T02:46:00Z,00000388,01000608,0003.46,0001.61,0001.15,0000.90,0000.92,-000.06,0004.80,0004.48,0003.43,22.4,00.0,0656.3,30.7
2020-11-24T02:47:00Z,00000388,01000608,0002.58,0001.84,0000.90,0000.06,0000.71,0000.42,0004.38,0003.90,0003.24,22.4,00.0,0656.3,30.7
2020-11-24T02:48:00Z,00000388,01000608,0001.92,0001.85,0000.77,0000.57,0000.41,0000.19,0003.94,0003.74,0003.01,22.4,00.0,0656.3,30.7
2020-11-24T02:49:00Z,00000388,01000608,0002.82,0001.34,0000.91,0001.21,0000.57,-000.12,0003.62,0003.23,0002.51,22.4,00.0,0656.2,30.7
2020-11-24T02:50:00Z,00000388,01000608,0002.10,0001.34,0001.35,0000.82,0000.75,-000.11,0003.06,0002.92,0002.30,22.4,00.0,0656.2,30.7
2020-11-24T02:51:00Z,00000388,01000608,0001.93,0001.52,0000.69,0000.76,0000.64,0000.38,0003.07,0002.79,0002.26,22.3,00.0,0656.2,30.7
2020-11-24T02:52:00Z,00000388,01000608,0003.27,0000.79,0000.92,0000.63,0000.69,0000.17,0002.60,0002.60,0001.96,22.3,00.0,0656.2,30.7
2020-11-24T02:53:00Z,00000388,01000608,0002.13,0001.71,0000.90,0000.27,0000.22,-000.06,0002.46,0002.18,0001.72,22.3,00.0,0656.2,30.7
2020-11-24T02:54:00Z,00000388,01000608,0002.94,0000.79,0000.92,0000.26,0000.45,0000.14,0002.42,0002.24,0001.76,22.3,00.0,0656.2,30.7
2020-11-24T02:55:00Z,00000388,01000608,0001.04,0001.33,0000.84,-000.09,0000.48,0000.06,0002.07,0001.86,0001.35,22.2,00.0,0656.2,30.7
2020-11-24T02:56:00Z,00000388,01000608,0001.01,0000.85,0000.76,0000.23,0000.49,0000.41,0001.64,0001.65,0001.45,22.3,00.0,0656.2,30.7
2020-11-24T02:57:00Z,00000388,41000608,,,,,,,,,,22.3,00.0,0656.2,30.7
2020-11-24T02:58:00Z,00000388,61000608,,,,,,,,,,22.3,00.0,0655.3,30.7
2020-11-24T02:59:00Z,00000388,21000608,,,,,,,,,,22.4,00.0,0655.3,30.7
2020-11-24T03:00:00Z,00000388,21000608,,,,,,,,,,22.4,00.0,0655.3,30.7
2020-11-24T03:01:00Z,00000388,21000608,,,,,,,,,,22.4,00.0,0655.3,30.7
2020-11-24T03:02:00Z,00000388,21000608,,,,,,,,,,22.4,00.0,0655.3,30.7
2020-11-24T03:03:00Z,00000388,61000608,,,,,,,,,,22.4,00.0,0655.3,30.7
2020-11-24T03:04:00Z,00000388,41000608,0000.34,0002.23,0000.24,-000.06,-000.06,-000.34,0000.76,0000.77,0000.61,22.4,00.0,0656.2,30.7
2020-11-24T03:05:00Z,00000388,01000608,0000.87,0001.18,0001.32,-000.47,0000.24,0000.38,0000.68,0000.55,0000.41,22.4,00.0,0656.2,30.7
2020-11-24T03:06:00Z,00000388,01000608,0001.49,0001.10,0000.95,0000.00,-000.05,-000.19,0000.64,0000.62,0000.54,22.4,00.0,0656.2,30.7
2020-11-24T03:07:00Z,00000388,01000608,0002.19,0000.80,0000.66,0000.42,0000.10,0000.12,0000.65,0000.56,0000.45,22.4,00.0,0656.2,30.7
2020-11-24T03:08:00Z,00000388,01000608,0001.02,0000.93,0000.49,0000.68,-000.13,0000.19,0000.59,0000.57,0000.50,22.3,00.0,0656.2,30.7
2020-11-24T03:09:00Z,00000388,01000608,0001.09,0001.65,0001.05,0000.28,0000.02,-000.19,0000.66,0000.46,0000.39,22.3,00.0,0656.2,30.7
2020-11-24T03:10:00Z,00000388,01000608,0000.41,0001.23,0000.89,-000.34,0000.02,-000.20,0000.62,0000.68,0000.37,22.3,00.0,0656.3,30.7